Showing default

BEIDOU 6, 37210

Orbit data source: Space-Track

BEIDOU 6, 37210 is a payload satellite owned by CNSA (CN) in GEO that was launched on Sun, 31 Oct 2010 UTC via a CHANG ZHENG 3C launch vehicle from the Xichang Space Center, China (XSC). Payload-class satellites include a variety of spacecraft equipped with specific instruments for various scientific and technological missions. These include communications satellites like Starlink; space stations such as the ISS; scientific satellites like the Hubble; Earth observation satellites from companies like Planet Labs, Umbra, and HawkEye 360; GPS; miniature CubeSats for education and research; and military/defense satellites.

Not visible in the next 10 days
Identifier
37210, 2010-057A
Orbit
GEO
Country
Flag of CNCN / PRC
Related business
Manufacturer
CAST
Mission
Operational Defense Navigation
Bus & Motor
DFH-3B, FY-25
Mass
3,060 kg wet, 1,700 kg dry
Launch date (UTC)
2010-10-31 (15 years ago)
Launch vehicle
CHANG ZHENG 3C
Launch site
Xichang Space Center, China (XSC)
Object type
Payload
Rocket body
Debris
Shape & HBR
Box + 2 Pan, 9.0 m
Radar Cross Section
13.998 m², Large (>1 m²)

Expand to show TLE details & history
Last TLE update: 6 hours ago

TLE from 6 hours ago
0 BEIDOU 6
1 37210U 10057A   26104.65574689 -.00000104  00000-0  00000-0 0  9995
2 37210   3.4884  69.2940 0006609 214.7101 314.8883  1.00271174 56659
Epoch: 2026-04-14T15:44Z
TLE epoch observation values (Epoch: 2026-04-14T15:44:16.531Z)
Latitude
0.64007°
Longitude
159.95554°
Altitude
35,766.606 km
Speed
3.076 km/s
True Right ascension
15h 55m 24s
True Declination
0° 38' 22"
Sunlit
Object was in daylight at epoch
Visualization orbit readout
Latitude
Unknown
Longitude
Unknown
Altitude
Unknown
Speed
Unknown
Apparent Right ascension
Unknown
Apparent Declination
Unknown
Sunlit
N/A
Visualization observer readout
Local Sidereal Time
04:25:04
Azimuth
Unknown
Elevation
Unknown
Doppler factor
Unknown
Orbital elements
Apogee altitude
35,815.698 km
Perigee altitude
35,759.963 km
Semi-major axis
42,165.968 km
Eccentricity
0.00066
Inclination
3.4884°
RAAN
69.294°
Arg. of periapsis
214.7101°
True anomaly
314.83461°
Mean anomaly
314.8883°
Eccentric anomaly
314.86146°
Mean motion
0.25067 °/min
Orbital period
1,436.16 mins
BSTAR
0
Loading maneuver chart data...
Computing Atmospheric mass density...
Loading historical data...
Loading historical data...
Loading historical data...
Loading historical data...
Loading historical data...
Loading historical data...
Loading historical data...

Documentation

Showing up to 5 results
|